Вернуться в каталог

FENGYUN 1C DEB

АктивенPO
NORAD 30848·DEBRIS·🇨🇳 China

Запущен May 10, 1999 с Taiyuan Satellite Launch Center

Loading…

Ближайшие Пролёты (ближайшие 24 часа)

TLE

СвежийSource: Space-Track

Эпоха: Sep 13, 2026, 20:30 UTC

1 30848U 99025AWJ 26256.85474748  .00001576  00000-0  55436-3 0  9991
2 30848  99.0401 110.1355 0041227 251.2904 108.3804 14.35942743 12541

Отслеживайте FENGYUN 1C DEB в реальном времени с AllMySat

Download on the App Store